Location: Ottawa
(45.4167°N, 75.7000°W)
Time: 18:27:08
(UTC-04:00)

Envisat - Pass Details

Date: 08 October 2017
Orbit: 764 x 766 km, 98.2° (Epoch: 17 October)

Event Time Altitude Azimuth Distance (km) Brightness Sun altitude
Exits shadow 19:01:12 - 91° (E) 2,507 5.0 -6.4°
Reaches altitude 10° 19:02:14 10° 81° (E) 2,306 4.8 -6.6°
Maximum altitude 19:04:20 13° 56° (NE) 2,130 4.8 -6.9°
Drops below altitude 10° 19:06:26 10° 32° (NNE) 2,311 5.2 -7.3°
Sets 19:10:06 0° 4° (N) 3,243 6.2 -7.9°
